Time,TemperatureF,DewpointF,PressureIn,WindDirection,WindDirectionDegrees,WindSpeedMPH,WindSpeedGustMPH,Humidity,HourlyPrecipIn,Conditions,Clouds,dailyrainin,SoftwareType,DateUTC
2013-05-06 00:02:00,46.0,22.0,30.00,SSW,199,0.0,-999.0,38,-99.99,,,-99.99,,2013-05-06 06:02:00,
2013-05-06 00:12:00,46.0,22.0,30.00,SSW,199,0.0,-999.0,38,-99.99,,,-99.99,,2013-05-06 06:12:00,
2013-05-06 00:21:00,46.0,22.0,30.00,SSW,199,1.0,-999.0,38,-99.99,,,-99.99,,2013-05-06 06:21:00,
2013-05-06 00:31:00,46.0,21.0,30.00,SSW,193,0.0,-999.0,37,-99.99,,,-99.99,,2013-05-06 06:31:00,
2013-05-06 00:41:00,46.0,21.0,30.00,SSW,193,0.0,-999.0,37,-99.99,,,-99.99,,2013-05-06 06:41:00,
2013-05-06 00:52:00,46.0,21.0,29.99,SSW,197,0.0,-999.0,37,-99.99,,,-99.99,,2013-05-06 06:52:00,
2013-05-06 01:01:00,46.0,22.0,29.99,SSW,200,0.0,-999.0,38,-99.99,,,-99.99,,2013-05-06 07:01:00,
2013-05-06 01:11:00,46.0,22.0,29.99,SSW,200,0.0,-999.0,38,-99.99,,,-99.99,,2013-05-06 07:11:00,
2013-05-06 01:22:00,46.0,22.0,29.99,SSW,200,0.0,-999.0,38,-99.99,,,-99.99,,2013-05-06 07:22:00,
2013-05-06 01:31:00,46.0,21.0,29.99,SSW,200,0.0,-999.0,37,-99.99,,,-99.99,,2013-05-06 07:31:00,
2013-05-06 01:41:00,46.0,21.0,29.99,SSW,200,0.0,-999.0,37,-99.99,,,-99.99,,2013-05-06 07:41:00,
2013-05-06 01:52:00,46.0,21.0,29.99,SSW,200,0.0,-999.0,36,-99.99,,,-99.99,,2013-05-06 07:52:00,
2013-05-06 02:01:00,48.0,21.0,29.99,SSW,200,0.0,-999.0,34,-99.99,,,-99.99,,2013-05-06 08:01:00,
2013-05-06 02:12:00,48.0,21.0,29.99,SSW,200,0.0,-999.0,34,-99.99,,,-99.99,,2013-05-06 08:12:00,
2013-05-06 02:22:00,48.0,20.0,29.98,SSW,200,0.0,-999.0,33,-99.99,,,-99.99,,2013-05-06 08:22:00,
2013-05-06 02:31:00,48.0,21.0,29.98,SSW,200,0.0,-999.0,34,-99.99,,,-99.99,,2013-05-06 08:31:00,
2013-05-06 02:41:00,48.0,21.0,29.98,SSW,200,0.0,-999.0,34,-99.99,,,-99.99,,2013-05-06 08:41:00,
2013-05-06 02:52:00,46.0,20.0,29.98,SSW,200,0.0,-999.0,35,-99.99,,,-99.99,,2013-05-06 08:52:00,
2013-05-06 03:01:00,46.0,21.0,29.98,SSW,200,0.0,-999.0,37,-99.99,,,-99.99,,2013-05-06 09:01:00,
2013-05-06 03:11:00,46.0,21.0,29.98,SSW,200,0.0,-999.0,37,-99.99,,,-99.99,,2013-05-06 09:11:00,
2013-05-06 03:22:00,45.0,21.0,29.97,SSW,200,1.0,-999.0,38,-99.99,,,-99.99,,2013-05-06 09:22:00,
2013-05-06 03:32:00,44.0,20.0,29.97,SSW,200,0.0,-999.0,38,-99.99,,,-99.99,,2013-05-06 09:32:00,
2013-05-06 03:42:00,44.0,20.0,29.97,SSW,200,0.0,-999.0,38,-99.99,,,-99.99,,2013-05-06 09:42:00,
2013-05-06 03:53:00,45.0,19.0,29.96,SSW,200,0.0,-999.0,35,-99.99,,,-99.99,,2013-05-06 09:53:00,
2013-05-06 04:02:00,44.0,21.0,29.96,SSW,200,0.0,-999.0,40,-99.99,,,-99.99,,2013-05-06 10:02:00,
2013-05-06 04:12:00,44.0,21.0,29.96,SSW,200,0.0,-999.0,40,-99.99,,,-99.99,,2013-05-06 10:12:00,
2013-05-06 04:22:00,43.0,22.0,29.96,SSW,200,0.0,-999.0,42,-99.99,,,-99.99,,2013-05-06 10:22:00,
2013-05-06 04:32:00,43.0,24.0,29.96,SSW,200,0.0,-999.0,46,-99.99,,,-99.99,,2013-05-06 10:32:00,
2013-05-06 04:41:00,43.0,24.0,29.96,SSW,200,0.0,-999.0,46,-99.99,,,-99.99,,2013-05-06 10:41:00,
2013-05-06 04:52:00,42.0,23.0,29.96,SSW,200,0.0,-999.0,47,-99.99,,,-99.99,,2013-05-06 10:52:00,
2013-05-06 05:02:00,42.0,21.0,29.96,SSW,200,0.0,-999.0,43,-99.99,,,-99.99,,2013-05-06 11:02:00,
2013-05-06 05:11:00,42.0,21.0,29.96,SSW,200,0.0,-999.0,43,-99.99,,,-99.99,,2013-05-06 11:11:00,
2013-05-06 05:22:00,41.0,20.0,29.96,SSW,200,0.0,-999.0,42,-99.99,,,-99.99,,2013-05-06 11:22:00,
2013-05-06 05:31:00,41.0,20.0,29.96,SSW,200,0.0,-999.0,42,-99.99,,,-99.99,,2013-05-06 11:31:00,
2013-05-06 05:42:00,41.0,20.0,29.96,SSW,200,0.0,-999.0,42,-99.99,,,-99.99,,2013-05-06 11:42:00,
2013-05-06 05:52:00,41.0,20.0,29.95,SSW,200,0.0,-999.0,43,-99.99,,,-99.99,,2013-05-06 11:52:00,
2013-05-06 06:01:00,41.0,21.0,29.95,SSW,200,0.0,-999.0,44,-99.99,,,-99.99,,2013-05-06 12:01:00,
2013-05-06 06:12:00,41.0,21.0,29.95,SSW,200,0.0,-999.0,44,-99.99,,,-99.99,,2013-05-06 12:12:00,
2013-05-06 06:21:00,42.0,21.0,29.95,SSW,200,0.0,-999.0,43,-99.99,,,-99.99,,2013-05-06 12:21:00,
2013-05-06 06:31:00,42.0,21.0,29.95,SSW,200,0.0,-999.0,42,-99.99,,,-99.99,,2013-05-06 12:31:00,
2013-05-06 06:41:00,42.0,21.0,29.95,SSW,200,0.0,-999.0,42,-99.99,,,-99.99,,2013-05-06 12:41:00,
2013-05-06 06:52:00,42.0,21.0,29.95,SSW,200,0.0,-999.0,42,-99.99,,,-99.99,,2013-05-06 12:52:00,
2013-05-06 07:01:00,43.0,22.0,29.95,SSW,200,0.0,-999.0,42,-99.99,,,-99.99,,2013-05-06 13:01:00,
2013-05-06 07:11:00,43.0,22.0,29.95,SSW,200,0.0,-999.0,42,-99.99,,,-99.99,,2013-05-06 13:11:00,
2013-05-06 07:21:00,43.0,22.0,29.94,SSW,200,0.0,-999.0,42,-99.99,,,-99.99,,2013-05-06 13:21:00,
2013-05-06 07:31:00,44.0,21.0,29.95,SSE,161,0.0,-999.0,39,-99.99,,,-99.99,,2013-05-06 13:31:00,
2013-05-06 07:42:00,44.0,21.0,29.95,SSE,161,0.0,-999.0,39,-99.99,,,-99.99,,2013-05-06 13:42:00,
2013-05-06 07:52:00,45.0,20.0,29.94,SSE,161,0.0,-999.0,37,-99.99,,,-99.99,,2013-05-06 13:52:00,
2013-05-06 08:01:00,46.0,21.0,29.93,SSE,161,0.0,-999.0,37,-99.99,,,-99.99,,2013-05-06 14:01:00,
2013-05-06 08:11:00,46.0,21.0,29.93,SSE,161,0.0,-999.0,37,-99.99,,,-99.99,,2013-05-06 14:11:00,
2013-05-06 08:21:00,48.0,21.0,29.94,SSE,161,0.0,-999.0,34,-99.99,,,-99.99,,2013-05-06 14:21:00,
2013-05-06 08:32:00,48.0,25.0,29.93,SSE,161,0.0,-999.0,40,-99.99,,,-99.99,,2013-05-06 14:32:00,
2013-05-06 08:42:00,48.0,25.0,29.93,SSE,161,0.0,-999.0,40,-99.99,,,-99.99,,2013-05-06 14:42:00,
2013-05-06 08:52:00,48.0,26.0,29.93,SSE,161,0.0,-999.0,42,-99.99,,,-99.99,,2013-05-06 14:52:00,
2013-05-06 09:01:00,47.0,26.0,29.93,SSE,161,0.0,-999.0,44,-99.99,,,-99.99,,2013-05-06 15:01:00,
2013-05-06 09:11:00,47.0,26.0,29.93,SSE,161,0.0,-999.0,44,-99.99,,,-99.99,,2013-05-06 15:11:00,
2013-05-06 09:21:00,47.0,27.0,29.93,SSE,161,0.0,-999.0,45,-99.99,,,-99.99,,2013-05-06 15:21:00,
2013-05-06 09:33:00,47.0,26.0,29.92,SSE,161,0.0,-999.0,44,-99.99,,,-99.99,,2013-05-06 15:33:00,
2013-05-06 09:42:00,47.0,26.0,29.92,SSE,161,0.0,-999.0,44,-99.99,,,-99.99,,2013-05-06 15:42:00,
2013-05-06 09:53:00,48.0,26.0,29.92,SSE,162,0.0,-999.0,42,-99.99,,,-99.99,,2013-05-06 15:53:00,
2013-05-06 10:02:00,49.0,26.0,29.92,SSE,162,0.0,-999.0,40,-99.99,,,-99.99,,2013-05-06 16:02:00,
2013-05-06 10:13:00,49.0,26.0,29.92,SSE,162,0.0,-999.0,40,-99.99,,,-99.99,,2013-05-06 16:13:00,
2013-05-06 10:23:00,50.0,25.0,29.91,SSE,161,0.0,-999.0,37,-99.99,,,-99.99,,2013-05-06 16:23:00,
2013-05-06 10:32:00,51.0,25.0,29.91,SSE,161,0.0,-999.0,36,-99.99,,,-99.99,,2013-05-06 16:32:00,
2013-05-06 10:41:00,51.0,25.0,29.91,SSE,161,0.0,-999.0,36,-99.99,,,-99.99,,2013-05-06 16:41:00,
2013-05-06 10:52:00,53.0,28.0,29.91,SSE,161,0.0,-999.0,38,-99.99,,,-99.99,,2013-05-06 16:52:00,
2013-05-06 11:02:00,54.0,29.0,29.91,SSE,161,0.0,-999.0,38,-99.99,,,-99.99,,2013-05-06 17:02:00,
2013-05-06 11:11:00,54.0,29.0,29.91,SSE,161,0.0,-999.0,38,-99.99,,,-99.99,,2013-05-06 17:11:00,
2013-05-06 11:23:00,54.0,31.0,29.91,SSE,161,0.0,-999.0,42,-99.99,,,-99.99,,2013-05-06 17:23:00,
2013-05-06 11:31:00,54.0,32.0,29.91,SSE,161,0.0,-999.0,43,-99.99,,,-99.99,,2013-05-06 17:31:00,
2013-05-06 11:42:00,54.0,32.0,29.91,SSE,161,0.0,-999.0,43,-99.99,,,-99.99,,2013-05-06 17:42:00,
2013-05-06 11:52:00,53.0,31.0,29.91,South,179,1.0,-999.0,43,-99.99,,,-99.99,,2013-05-06 17:52:00,
2013-05-06 12:01:00,52.0,31.0,29.91,WSW,249,2.0,-999.0,45,-99.99,,,-99.99,,2013-05-06 18:01:00,
2013-05-06 12:11:00,52.0,31.0,29.91,WSW,249,2.0,-999.0,45,-99.99,,,-99.99,,2013-05-06 18:11:00,
2013-05-06 12:21:00,52.0,32.0,29.90,West,266,1.0,-999.0,46,-99.99,,,-99.99,,2013-05-06 18:21:00,
2013-05-06 12:31:00,53.0,33.0,29.90,WSW,258,1.0,-999.0,46,-99.99,,,-99.99,,2013-05-06 18:31:00,
2013-05-06 12:43:00,53.0,33.0,29.90,WSW,258,1.0,-999.0,46,-99.99,,,-99.99,,2013-05-06 18:43:00,
2013-05-06 12:52:00,54.0,33.0,29.89,WSW,252,1.0,-999.0,45,-99.99,,,-99.99,,2013-05-06 18:52:00,
2013-05-06 13:01:00,54.0,33.0,29.89,WSW,256,2.0,-999.0,44,-99.99,,,-99.99,,2013-05-06 19:01:00,
2013-05-06 13:11:00,54.0,33.0,29.89,WSW,256,2.0,-999.0,44,-99.99,,,-99.99,,2013-05-06 19:11:00,
2013-05-06 13:22:00,54.0,32.0,29.88,WSW,253,1.0,-999.0,43,-99.99,,,-99.99,,2013-05-06 19:22:00,
2013-05-06 13:32:00,54.0,32.0,29.88,WSW,253,1.0,-999.0,43,-99.99,,,-99.99,,2013-05-06 19:32:00,
2013-05-06 13:41:00,54.0,32.0,29.88,WSW,253,1.0,-999.0,43,-99.99,,,-99.99,,2013-05-06 19:41:00,
2013-05-06 13:52:00,56.0,33.0,29.88,West,261,1.0,-999.0,41,-99.99,,,-99.99,,2013-05-06 19:52:00,
2013-05-06 14:01:00,58.0,33.0,29.88,WSW,258,1.0,-999.0,38,-99.99,,,-99.99,,2013-05-06 20:01:00,
2013-05-06 14:11:00,58.0,33.0,29.88,WSW,258,1.0,-999.0,38,-99.99,,,-99.99,,2013-05-06 20:11:00,
2013-05-06 14:21:00,60.0,33.0,29.88,WSW,257,0.0,-999.0,36,-99.99,,,-99.99,,2013-05-06 20:21:00,
2013-05-06 14:32:00,59.0,31.0,29.88,West,260,1.0,-999.0,35,-99.99,,,-99.99,,2013-05-06 20:32:00,
2013-05-06 14:41:00,59.0,31.0,29.88,West,260,1.0,-999.0,35,-99.99,,,-99.99,,2013-05-06 20:41:00,
2013-05-06 14:52:00,55.0,31.0,29.87,West,277,2.0,-999.0,39,-99.99,,,-99.99,,2013-05-06 20:52:00,
2013-05-06 15:01:00,56.0,31.0,29.87,WNW,283,1.0,-999.0,38,-99.99,,,-99.99,,2013-05-06 21:01:00,
2013-05-06 15:11:00,56.0,31.0,29.87,WNW,283,1.0,-999.0,38,-99.99,,,-99.99,,2013-05-06 21:11:00,
2013-05-06 15:21:00,58.0,30.0,29.87,West,261,1.0,-999.0,34,-99.99,,,-99.99,,2013-05-06 21:21:00,
2013-05-06 15:32:00,60.0,29.0,29.87,West,259,0.0,-999.0,31,-99.99,,,-99.99,,2013-05-06 21:32:00,
2013-05-06 15:42:00,60.0,29.0,29.87,West,259,0.0,-999.0,31,-99.99,,,-99.99,,2013-05-06 21:42:00,
2013-05-06 15:53:00,56.0,27.0,29.86,WNW,290,1.0,-999.0,32,-99.99,,,-99.99,,2013-05-06 21:53:00,
2013-05-06 16:02:00,61.0,29.0,29.86,SSE,165,1.0,-999.0,30,-99.99,,,-99.99,,2013-05-06 22:02:00,
2013-05-06 16:12:00,61.0,29.0,29.86,SSE,165,1.0,-999.0,30,-99.99,,,-99.99,,2013-05-06 22:12:00,
2013-05-06 16:22:00,58.0,28.0,29.86,WNW,287,1.0,-999.0,31,-99.99,,,-99.99,,2013-05-06 22:22:00,
2013-05-06 16:33:00,55.0,26.0,29.85,WNW,285,3.0,-999.0,33,-99.99,,,-99.99,,2013-05-06 22:33:00,
2013-05-06 16:45:00,55.0,26.0,29.85,WNW,285,3.0,-999.0,33,-99.99,,,-99.99,,2013-05-06 22:45:00,
2013-05-06 16:52:00,56.0,28.0,29.85,WNW,287,2.0,-999.0,34,-99.99,,,-99.99,,2013-05-06 22:52:00,
2013-05-06 17:02:00,55.0,28.0,29.85,WNW,283,3.0,-999.0,35,-99.99,,,-99.99,,2013-05-06 23:02:00,
2013-05-06 17:11:00,55.0,28.0,29.85,WNW,283,3.0,-999.0,35,-99.99,,,-99.99,,2013-05-06 23:11:00,
2013-05-06 17:22:00,56.0,28.0,29.85,West,281,2.0,-999.0,34,-99.99,,,-99.99,,2013-05-06 23:22:00,
2013-05-06 17:31:00,56.0,29.0,29.84,WNW,284,2.0,-999.0,35,-99.99,,,-99.99,,2013-05-06 23:31:00,
2013-05-06 17:41:00,56.0,29.0,29.84,WNW,284,2.0,-999.0,35,-99.99,,,-99.99,,2013-05-06 23:41:00,
2013-05-06 17:52:00,56.0,28.0,29.85,WNW,284,1.0,-999.0,34,-99.99,,,-99.99,,2013-05-06 23:52:00,
2013-05-06 18:01:00,56.0,28.0,29.85,WNW,284,1.0,-999.0,34,-99.99,,,-99.99,,2013-05-07 00:01:00,
2013-05-06 18:11:00,56.0,28.0,29.85,WNW,284,1.0,-999.0,34,-99.99,,,-99.99,,2013-05-07 00:11:00,
2013-05-06 18:21:00,56.0,27.0,29.84,West,276,1.0,-999.0,32,-99.99,,,-99.99,,2013-05-07 00:21:00,
2013-05-06 18:31:00,56.0,27.0,29.85,West,279,2.0,-999.0,33,-99.99,,,-99.99,,2013-05-07 00:31:00,
2013-05-06 18:41:00,56.0,27.0,29.85,West,279,2.0,-999.0,33,-99.99,,,-99.99,,2013-05-07 00:41:00,
2013-05-06 18:52:00,56.0,26.0,29.84,West,278,1.0,-999.0,31,-99.99,,,-99.99,,2013-05-07 00:52:00,
2013-05-06 19:01:00,56.0,26.0,29.84,West,278,1.0,-999.0,31,-99.99,,,-99.99,,2013-05-07 01:01:00,
2013-05-06 19:11:00,56.0,26.0,29.84,West,278,1.0,-999.0,31,-99.99,,,-99.99,,2013-05-07 01:11:00,
2013-05-06 19:21:00,56.0,25.0,29.84,West,278,1.0,-999.0,30,-99.99,,,-99.99,,2013-05-07 01:21:00,
2013-05-06 19:31:00,55.0,23.0,29.83,West,279,2.0,-999.0,29,-99.99,,,-99.99,,2013-05-07 01:31:00,
2013-05-06 19:42:00,55.0,23.0,29.83,West,279,2.0,-999.0,29,-99.99,,,-99.99,,2013-05-07 01:42:00,
2013-05-06 19:52:00,55.0,22.0,29.83,West,279,2.0,-999.0,27,-99.99,,,-99.99,,2013-05-07 01:52:00,
2013-05-06 20:02:00,55.0,20.0,29.83,West,273,3.0,-999.0,25,-99.99,,,-99.99,,2013-05-07 02:02:00,
2013-05-06 20:11:00,55.0,20.0,29.83,West,273,3.0,-999.0,25,-99.99,,,-99.99,,2013-05-07 02:11:00,
2013-05-06 20:21:00,55.0,20.0,29.83,West,273,2.0,-999.0,25,-99.99,,,-99.99,,2013-05-07 02:21:00,
2013-05-06 20:31:00,54.0,17.0,29.83,West,273,3.0,-999.0,23,-99.99,,,-99.99,,2013-05-07 02:31:00,
2013-05-06 20:41:00,54.0,17.0,29.83,West,273,3.0,-999.0,23,-99.99,,,-99.99,,2013-05-07 02:41:00,
2013-05-06 20:52:00,54.0,18.0,29.83,West,273,3.0,-999.0,24,-99.99,,,-99.99,,2013-05-07 02:52:00,
2013-05-06 21:01:00,54.0,16.0,29.83,West,272,2.0,-999.0,22,-99.99,,,-99.99,,2013-05-07 03:01:00,
2013-05-06 21:11:00,54.0,16.0,29.83,West,272,2.0,-999.0,22,-99.99,,,-99.99,,2013-05-07 03:11:00,
2013-05-06 21:21:00,54.0,17.0,29.83,West,270,1.0,-999.0,23,-99.99,,,-99.99,,2013-05-07 03:21:00,
2013-05-06 21:32:00,54.0,9.0,29.83,West,265,2.0,-999.0,16,-99.99,,,-99.99,,2013-05-07 03:32:00,
2013-05-06 21:42:00,54.0,9.0,29.83,West,265,2.0,-999.0,16,-99.99,,,-99.99,,2013-05-07 03:42:00,
2013-05-06 21:53:00,54.0,3.0,29.84,West,265,2.0,-999.0,12,-99.99,,,-99.99,,2013-05-07 03:53:00,
2013-05-06 22:02:00,54.0,-1.0,29.84,West,265,2.0,-999.0,10,-99.99,,,-99.99,,2013-05-07 04:02:00,
2013-05-06 22:23:00,54.0,-1.0,29.84,West,265,2.0,-999.0,10,-99.99,,,-99.99,,2013-05-07 04:23:00,
2013-05-06 22:32:00,53.0,9.0,29.85,West,265,2.0,-999.0,17,-99.99,,,-99.99,,2013-05-07 04:32:00,
2013-05-06 22:42:00,53.0,9.0,29.85,West,265,2.0,-999.0,17,-99.99,,,-99.99,,2013-05-07 04:42:00,
2013-05-06 22:52:00,52.0,17.0,29.85,West,272,3.0,-999.0,25,-99.99,,,-99.99,,2013-05-07 04:52:00,
2013-05-06 23:02:00,52.0,22.0,29.85,West,278,4.0,-999.0,31,-99.99,,,-99.99,,2013-05-07 05:02:00,
2013-05-06 23:12:00,52.0,22.0,29.85,West,278,4.0,-999.0,31,-99.99,,,-99.99,,2013-05-07 05:12:00,
2013-05-06 23:22:00,52.0,22.0,29.84,West,279,4.0,-999.0,31,-99.99,,,-99.99,,2013-05-07 05:22:00,
2013-05-06 23:32:00,52.0,23.0,29.84,West,280,4.0,-999.0,32,-99.99,,,-99.99,,2013-05-07 05:32:00,
2013-05-06 23:42:00,52.0,23.0,29.84,West,280,4.0,-999.0,32,-99.99,,,-99.99,,2013-05-07 05:42:00,
2013-05-06 23:52:00,52.0,23.0,29.84,West,281,3.0,-999.0,32,-99.99,,,-99.99,,2013-05-07 05:52:00,